TimeAKST,TemperatureF,Dew PointF,Humidity,Sea Level PressureIn,VisibilityMPH,Wind Direction,Wind SpeedMPH,Gust SpeedMPH,PrecipitationIn,Events,Conditions,WindDirDegrees,DateUTC
12:01 AM,-29.0,-36.0,69,29.87,10.0,Calm,Calm,-,N/A,,Clear,0,2012-12-11 09:01:00
1:01 AM,-29.9,-9999,N/A,29.87,10.0,SW,3.5,-,N/A,,Clear,230,2012-12-11 10:01:00
2:01 AM,-29.9,-9999,N/A,29.86,10.0,SW,3.5,-,N/A,,Clear,220,2012-12-11 11:01:00
3:01 AM,-29.0,-35.0,73,29.85,10.0,WSW,4.6,-,N/A,,Clear,250,2012-12-11 12:01:00
4:01 AM,-29.0,-35.0,73,29.84,10.0,WSW,6.9,-,N/A,,Clear,250,2012-12-11 13:01:00
5:01 AM,-27.9,-34.1,73,29.84,10.0,SW,5.8,-,N/A,,Clear,230,2012-12-11 14:01:00
6:01 AM,-27.9,-34.1,73,29.83,10.0,SW,4.6,-,N/A,,Clear,220,2012-12-11 15:01:00
7:01 AM,-27.0,-33.0,73,29.82,10.0,WSW,8.1,-,N/A,,Clear,250,2012-12-11 16:01:00
8:01 AM,-26.0,-31.0,77,29.82,10.0,WSW,9.2,-,N/A,,Clear,250,2012-12-11 17:01:00
9:01 AM,-24.0,-29.9,74,29.83,10.0,West,9.2,-,N/A,,Clear,260,2012-12-11 18:01:00
10:01 AM,-24.0,-29.9,74,29.82,10.0,WSW,10.4,-,N/A,,Clear,250,2012-12-11 19:01:00
11:01 AM,-24.0,-29.0,77,29.83,10.0,WSW,15.0,-,N/A,,Clear,250,2012-12-11 20:01:00
12:01 PM,-25.1,-31.0,74,29.84,10.0,WSW,12.7,-,N/A,,Clear,240,2012-12-11 21:01:00
1:01 PM,-24.0,-29.0,77,29.85,9.0,WSW,15.0,-,N/A,,Clear,250,2012-12-11 22:01:00
2:01 PM,-22.0,-27.0,77,29.85,9.0,West,12.7,-,N/A,,Clear,260,2012-12-11 23:01:00
3:01 PM,-20.0,-25.1,78,29.85,9.0,West,13.8,-,N/A,,Clear,270,2012-12-12 00:01:00
4:01 PM,-20.0,-25.1,78,29.86,10.0,West,13.8,-,N/A,,Clear,280,2012-12-12 01:01:00
5:01 PM,-20.0,-26.0,74,29.85,9.0,West,17.3,-,N/A,,Clear,280,2012-12-12 02:01:00
6:01 PM,-20.9,-26.0,77,29.84,10.0,West,16.1,-,N/A,,Clear,280,2012-12-12 03:01:00
7:01 PM,-20.9,-26.0,77,29.83,10.0,West,17.3,-,N/A,,Clear,280,2012-12-12 04:01:00
8:01 PM,-20.0,-25.1,78,29.82,10.0,West,16.1,-,N/A,,Clear,280,2012-12-12 05:01:00
9:01 PM,-20.0,-25.1,78,29.80,4.0,WNW,16.1,-,N/A,,Haze,290,2012-12-12 06:01:00
10:01 PM,-20.0,-26.0,74,29.78,10.0,West,11.5,-,N/A,,Clear,260,2012-12-12 07:01:00
11:01 PM,-20.9,-26.0,77,29.77,5.0,WSW,10.4,-,N/A,,Haze,240,2012-12-12 08:01:00